Regional Weather Roundup
Issued by NWS

Home | Current Version | Previous Version | Text Only | Print | Product List | Glossary On
Versions: 1 2 3 4 5 6 7 8 9 10 11 12 13 14 15 16 17 18 19 20 21 22 23 24 25 26 27 28 29 30 31 32 33 34 35 36 37 38 39 40 41 42 43 44 45 46 47 48 49 50
000
ASUS45 KBOI 252210
RWRID

IDAHO REGIONAL WEATHER ROUNDUP
NATIONAL WEATHER SERVICE BOISE ID
400 PM MDT SUN SEP 25 2016

NOTE: "FAIR" INDICATES FEW OR NO CLOUDS BELOW 12000 FEET
WITH NO SIGNIFICANT WEATHER AND/OR OBSTRUCTIONS TO VISIBILITY

IDZ012-014-252300-
SOUTHWEST IDAHO


CITY           SKY/WX    TMP DP  RH WIND       PRES   REMARKS
BOISE          SUNNY     73  32  22 VRB6      30.40F
CALDWELL       SUNNY     74  31  20 VRB5      30.40
MOUNTAIN HOME  SUNNY     75  31  20 W8        30.40F
$$

IDZ016-017-252300-
SOUTHCENTRAL IDAHO


CITY           SKY/WX    TMP DP  RH WIND       PRES   REMARKS
BURLEY         SUNNY     64  36  35 W5        30.44F
JEROME         SUNNY     66  40  38 VRB5      30.45F
TWIN FALLS     SUNNY     65  38  36 W5        30.45F
$$

IDZ019>023-252300-
SOUTHEAST IDAHO


CITY           SKY/WX    TMP DP  RH WIND       PRES   REMARKS
IDAHO FALLS    SUNNY     64  33  31 SW7       30.47F
POCATELLO      SUNNY     66  34  30 NW6       30.47F
REXBURG        SUNNY     62  35  36 W9        30.47F
$$

IDZ006-010-011-018-031-032-252300-
CENTRAL IDAHO MOUNTAINS


CITY           SKY/WX    TMP DP  RH WIND       PRES   REMARKS
MCCALL         SUNNY     70  35  27 W12       30.46S
HAILEY         MOSUNNY   64  43  45 SE12      30.49F
STANLEY          N/A     71  37  28 VRB5      30.50F
SALMON         MOSUNNY   64  32  29 CALM      30.42F
CHALLIS        SUNNY     68  32  26 CALM      30.44F
$$

IDZ002-004-006-007-026-252300-
NORTHERN IDAHO


CITY           SKY/WX    TMP DP  RH WIND       PRES   REMARKS
LEWISTON       SUNNY     78  29  16 CALM      30.37F
LOWELL           N/A     74  46  36 CALM      30.38F
COEUR D`ALENE  NOT AVBL
MULLAN PASS    CLOUDY    53  38  56 VRB6      30.50S
$$



USA.gov is the U.S. government's official web portal to all federal, state and local government web resources and services.